Concordia, KS

5:28 AM CST on December 10, 2016 (GMT -0600)
Blosser Municipal

Weather History for KCNK - December, 2012

Change the Weather History Date:

Friday, December 7, 2012

  Actual Average Record
Temperature  
Mean Temperature 36 °F 32 °F  
Max Temperature 44 °F 41 °F 69 °F (1894)
Min Temperature 27 °F 22 °F -5 °F (1909)
Degree Days  
Heating Degree Days 29 33  
Month to date heating degree days 136 226  
Since 1 July heating degree days 1166 1318  
Cooling Degree Days 0 0  
Month to date cooling degree days 0 0  
Year to date cooling degree days 1643 1349  
Moisture  
Dew Point 28 °F    
Average Humidity 78    
Maximum Humidity 92    
Minimum Humidity 64    
Precipitation  
Precipitation 0.00 in 0.03 in 0.81 in (1980)
Month to date precipitation T 0.23  
Year to date precipitation 23.08 27.27  
Snow  
Snow 0.00 in 0.10 in 2.40 in (2005)
Month to date snowfall 0.0 0.8  
Year to date snowfall 5.8 17.2  
Since 1 July snowfall 0.0 3.5  
Snow Depth 0.00 in    
Sea Level Pressure  
Sea Level Pressure 29.95 in    
Wind  
Wind Speed 4 mph (NW)    
Max Wind Speed 10 mph    
Max Gust Speed 13 mph    
Visibility 10 miles    
Events      
T = Trace of Precipitation, MM = Missing Value Source: NWS Daily Summary

Daily Weather History Graph

Daily Weather History Graph

Search for Another Location

Airport or City:

Trip Planner

Search our weather history database for the weather conditions in past years. The results will help you decide how hot, cold, wet, or windy it might be!

Date:

Astronomy

Dec. 07, 2012 Rise Set
Actual Time 7:38 AM CST 5:06 PM CST
Civil Twilight 7:08 AM CST 5:36 PM CST
Nautical Twilight 6:34 AM CST 6:10 PM CST
Astronomical Twilight 6:01 AM CST 6:42 PM CST
Moon 1:00 AM CST (12/7) 1:03 PM CST (12/7)
Length of Visible Light 10h 28m
Length of Day
9h 28m
Last Quarter, 38% of the Moon is Illuminated
Dec 7
Last Quarter
Dec 13
New
Dec 19
First Quarter
Dec 28
Full
Jan 4
Last Quarter

Hourly Weather History & Observations

Time (CST) Temp. Windchill Dew Point Humidity Pressure Visibility Wind Dir Wind Speed Gust Speed Precip Events Conditions
12:55 AM 37.9 °F - 26.1 °F 62% 29.96 in 10.0 mi Calm Calm - N/A   Clear
1:55 AM 33.1 °F 26.9 °F 24.1 °F 70% 29.97 in 10.0 mi North 6.9 mph - N/A   Clear
2:55 AM 32.0 °F 25.6 °F 24.1 °F 73% 29.99 in 10.0 mi NNW 6.9 mph - N/A   Clear
3:55 AM 30.9 °F - 23.0 °F 72% 29.97 in 10.0 mi Calm Calm - N/A   Clear
4:55 AM 30.0 °F 26.5 °F 23.0 °F 75% 29.96 in 10.0 mi NNW 3.5 mph - N/A   Clear
5:55 AM 28.9 °F 25.2 °F 23.0 °F 78% 29.94 in 10.0 mi NW 3.5 mph - N/A   Clear
6:55 AM 28.9 °F - 23.0 °F 78% 29.93 in 10.0 mi Calm Calm - N/A   Mostly Cloudy
7:55 AM 28.0 °F 22.8 °F 21.9 °F 78% 29.94 in 10.0 mi NNW 4.6 mph - N/A   Clear
8:53 AM 30.2 °F - 24.8 °F 80% 29.93 in 10.0 mi Calm Calm - N/A   Mostly Cloudy
8:55 AM 30.0 °F 26.5 °F 25.0 °F 82% 29.96 in 10.0 mi West 3.5 mph - N/A   Overcast
9:55 AM 35.1 °F - 27.0 °F 72% 29.96 in 10.0 mi Calm Calm - N/A   Overcast
10:35 AM 35.6 °F 31.7 °F 28.4 °F 75% 29.94 in 10.0 mi NNW 4.6 mph - N/A   Overcast
10:55 AM 36.0 °F - 28.0 °F 73% 29.95 in 10.0 mi Calm Calm - N/A   Overcast
11:55 AM 39.9 °F - 30.0 °F 68% 29.94 in 10.0 mi Calm Calm - N/A   Mostly Cloudy
12:17 PM 39.2 °F - 30.2 °F 70% 29.90 in 10.0 mi Calm Calm - N/A   Mostly Cloudy
12:55 PM 41.0 °F - 32.0 °F 70% 29.91 in 10.0 mi Calm Calm - N/A   Overcast
1:55 PM 42.1 °F 38.4 °F 33.1 °F 70% 29.90 in 10.0 mi NNW 5.8 mph - N/A   Overcast
2:55 PM 43.0 °F 38.8 °F 33.1 °F 68% 29.89 in 10.0 mi North 6.9 mph - N/A   Overcast
3:55 PM 43.0 °F 38.8 °F 33.1 °F 68% 29.90 in 10.0 mi North 6.9 mph - N/A   Overcast
4:55 PM 42.1 °F 39.2 °F 32.0 °F 67% 29.90 in 10.0 mi North 4.6 mph - N/A   Mostly Cloudy
5:55 PM 39.9 °F 36.7 °F 32.0 °F 73% 29.92 in 10.0 mi North 4.6 mph - N/A   Overcast
6:55 PM 37.9 °F 35.5 °F 32.0 °F 79% 29.94 in 10.0 mi NW 3.5 mph - N/A   Mostly Cloudy
7:55 PM 33.1 °F 30.0 °F 28.9 °F 85% 29.97 in 10.0 mi West 3.5 mph - N/A   Clear
8:55 PM 32.0 °F 25.6 °F 28.9 °F 88% 29.99 in 10.0 mi West 6.9 mph - N/A   Clear
9:55 PM 30.0 °F 23.2 °F 28.0 °F 92% 30.00 in 6.0 mi West 6.9 mph - N/A   Clear
10:55 PM 30.0 °F 23.2 °F 28.9 °F 96% 29.99 in 6.0 mi West 6.9 mph - N/A   Clear
11:55 PM 30.0 °F 22.4 °F 27.0 °F 88% 30.01 in 10.0 mi WNW 8.1 mph - N/A   Clear